Total_Precipitation_Accumulation
0.73 0.59 0.65 0.68 0.58 0.69 1.10 1.15 1.15 0.77 0.64 0.71 0.71 0.69 0.64 0.62 0.64 0.67 0.73 0.73 0.73 0.77 0.79 0.79 0.75 0.76 0.85 0.99 1.12 1.20 1.35 1.52 1.57 1.61 1.65 1.66 1.59 1.54 1.52 1.54 1.63 1.66 1.69 1.79
0.74 0.50 0.48 0.52 0.46 0.53 0.68 0.73 0.80 0.65 0.67 0.60 0.59 0.56 0.56 0.60 0.60 0.61 0.69 0.70 0.68 0.70 0.75 0.77 0.74 0.72 0.75 0.83 0.97 1.02 1.15 1.31 1.42 1.51 1.62 1.76 1.78 1.72 1.64 1.56 1.58 1.65 1.66 1.72
0.79 0.45 0.60 0.75 0.64 0.63 0.68 0.70 0.77 0.83 0.75 0.56 0.56 0.60 0.69 0.69 0.63 0.62 0.64 0.67 0.63 0.64 0.70 0.70 0.69 0.71 0.74 0.77 0.88 0.96 0.98 1.05 1.19 1.38 1.47 1.58 1.77 1.86 1.78 1.71 1.74 1.75 1.78 1.83
0.97 0.70 0.91 0.69 0.47 0.50 0.59 0.67 0.70 0.71 0.59 0.52 0.56 0.63 0.66 0.67 0.68 0.63 0.59 0.58 0.57 0.60 0.64 0.63 0.62 0.65 0.68 0.70 0.79 0.92 0.97 1.03 1.15 1.27 1.38 1.53 1.70 1.85 1.92 1.89 1.94 1.94 1.92 1.92
1.19 0.93 0.60 0.37 0.31 0.48 0.62 0.66 0.54 0.51 0.47 0.40 0.39 0.43 0.51 0.57 0.61 0.65 0.62 0.56 0.55 0.58 0.61 0.59 0.60 0.66 0.66 0.67 0.77 0.86 0.93 1.01 1.08 1.20 1.30 1.45 1.62 1.76 1.87 1.91 1.96 2.00 1.90 1.80
1.34 1.10 0.68 0.45 0.25 0.30 0.53 0.79 0.43 0.39 0.42 0.40 0.37 0.52 0.59 0.57 0.60 0.57 0.58 0.58 0.56 0.55 0.54 0.54 0.62 0.68 0.70 0.73 0.77 0.88 0.93 0.98 1.02 1.12 1.22 1.32 1.46 1.61 1.75 1.84 1.85 1.80 1.74 1.65
1.16 1.08 0.60 0.41 0.25 0.25 0.72 0.95 0.45 0.41 0.44 0.45 0.52 0.61 0.59 0.54 0.51 0.50 0.51 0.55 0.59 0.61 0.61 0.63 0.69 0.74 0.76 0.77 0.81 0.86 0.90 0.96 1.01 1.07 1.17 1.25 1.27 1.34 1.45 1.53 1.55 1.52 1.46 1.45
0.86 1.08 0.75 0.41 0.36 0.65 0.85 0.55 0.45 0.43 0.47 0.53 0.55 0.49 0.48 0.50 0.50 0.47 0.50 0.54 0.60 0.64 0.66 0.68 0.71 0.73 0.74 0.79 0.85 0.85 0.88 0.93 1.01 1.06 1.08 1.12 1.13 1.14 1.17 1.21 1.28 1.33 1.28 1.26
0.78 0.88 0.77 0.62 0.73 0.78 0.68 0.59 0.51 0.50 0.50 0.53 0.57 0.57 0.55 0.57 0.57 0.55 0.54 0.58 0.59 0.60 0.62 0.64 0.71 0.78 0.81 0.82 0.84 0.85 0.87 0.90 0.94 0.96 0.98 1.04 1.08 1.08 1.11 1.12 1.18 1.27 1.21 1.18
0.65 0.64 0.57 0.53 0.52 0.51 0.52 0.56 0.54 0.53 0.53 0.52 0.55 0.58 0.58 0.61 0.63 0.63 0.62 0.60 0.58 0.56 0.57 0.62 0.66 0.71 0.75 0.74 0.74 0.77 0.83 0.84 0.87 0.86 0.89 0.93 1.00 1.07 1.13 1.17 1.16 1.17 1.14 1.12
0.57 0.50 0.40 0.37 0.40 0.41 0.39 0.37 0.39 0.40 0.43 0.48 0.49 0.54 0.56 0.59 0.60 0.62 0.62 0.61 0.57 0.56 0.57 0.61 0.62 0.65 0.70 0.71 0.69 0.70 0.74 0.75 0.77 0.80 0.84 0.92 0.98 1.06 1.14 1.19 1.26 1.27 1.16 1.09
0.64 0.50 0.49 0.46 0.41 0.37 0.35 0.35 0.37 0.37 0.39 0.41 0.44 0.51 0.51 0.53 0.55 0.56 0.58 0.58 0.55 0.54 0.55 0.57 0.57 0.60 0.65 0.67 0.68 0.69 0.70 0.71 0.74 0.75 0.80 0.88 0.95 1.03 1.15 1.19 1.23 1.25 1.24 1.16
0.53 0.43 0.40 0.38 0.35 0.33 0.34 0.36 0.35 0.36 0.39 0.39 0.38 0.39 0.41 0.45 0.47 0.47 0.47 0.49 0.53 0.56 0.57 0.56 0.54 0.57 0.61 0.61 0.62 0.65 0.69 0.72 0.74 0.75 0.79 0.85 0.87 0.90 1.00 1.04 1.05 1.11 1.16 1.16
0.34 0.30 0.30 0.29 0.31 0.30 0.29 0.30 0.28 0.29 0.32 0.34 0.36 0.35 0.33 0.34 0.36 0.38 0.44 0.50 0.51 0.50 0.51 0.51 0.49 0.50 0.53 0.54 0.56 0.61 0.66 0.71 0.70 0.72 0.78 0.80 0.84 0.86 0.86 0.86 0.89 0.94 1.01 1.07
0.25 0.27 0.32 0.27 0.23 0.22 0.23 0.22 0.22 0.25 0.27 0.31 0.33 0.34 0.34 0.34 0.38 0.44 0.46 0.44 0.43 0.42 0.43 0.42 0.43 0.49 0.51 0.51 0.53 0.57 0.61 0.65 0.66 0.68 0.73 0.76 0.78 0.82 0.82 0.80 0.80 0.80 0.80 0.89
0.27 0.24 0.22 0.21 0.21 0.21 0.21 0.22 0.23 0.27 0.28 0.30 0.32 0.34 0.35 0.36 0.39 0.42 0.43 0.42 0.41 0.43 0.44 0.42 0.44 0.48 0.50 0.52 0.53 0.57 0.61 0.66 0.64 0.64 0.67 0.71 0.73 0.75 0.78 0.75 0.73 0.72 0.74 0.80
0.31 0.30 0.28 0.27 0.26 0.25 0.26 0.29 0.30 0.31 0.31 0.31 0.33 0.35 0.34 0.34 0.35 0.38 0.41 0.42 0.42 0.44 0.44 0.44 0.48 0.47 0.47 0.49 0.52 0.56 0.60 0.62 0.63 0.61 0.63 0.68 0.71 0.74 0.77 0.77 0.74 0.70 0.72 0.82
0.37 0.39 0.39 0.39 0.36 0.33 0.31 0.31 0.33 0.33 0.33 0.34 0.32 0.31 0.33 0.35 0.39 0.42 0.43 0.41 0.40 0.40 0.41 0.44 0.45 0.43 0.43 0.46 0.49 0.52 0.55 0.56 0.55 0.57 0.59 0.64 0.69 0.72 0.74 0.75 0.73 0.70 0.69 0.76
0.35 0.37 0.38 0.37 0.37 0.35 0.34 0.33 0.34 0.34 0.34 0.34 0.34 0.35 0.35 0.37 0.39 0.42 0.42 0.40 0.38 0.41 0.43 0.41 0.44 0.40 0.40 0.46 0.51 0.49 0.50 0.51 0.52 0.54 0.57 0.63 0.66 0.64 0.66 0.69 0.70 0.68 0.66 0.67
0.34 0.35 0.36 0.36 0.34 0.34 0.34 0.32 0.30 0.30 0.31 0.32 0.33 0.34 0.35 0.37 0.38 0.39 0.39 0.38 0.42 0.46 0.44 0.42 0.40 0.36 0.38 0.43 0.51 0.48 0.48 0.50 0.51 0.53 0.56 0.58 0.60 0.61 0.63 0.65 0.66 0.65 0.63 0.62
0.33 0.32 0.32 0.33 0.33 0.32 0.33 0.33 0.31 0.30 0.29 0.30 0.33 0.35 0.36 0.37 0.37 0.38 0.37 0.37 0.38 0.38 0.36 0.39 0.37 0.35 0.38 0.45 0.51 0.48 0.47 0.50 0.52 0.53 0.54 0.56 0.57 0.58 0.60 0.60 0.62 0.62 0.61 0.60
0.31 0.30 0.31 0.31 0.30 0.30 0.30 0.28 0.29 0.30 0.30 0.30 0.31 0.32 0.32 0.33 0.34 0.33 0.34 0.37 0.37 0.38 0.36 0.33 0.34 0.41 0.49 0.53 0.47 0.44 0.45 0.48 0.50 0.52 0.53 0.53 0.55 0.57 0.58 0.58 0.60 0.60 0.61 0.61
0.30 0.28 0.28 0.28 0.28 0.29 0.27 0.25 0.27 0.30 0.31 0.31 0.32 0.33 0.33 0.34 0.34 0.35 0.35 0.33 0.33 0.36 0.34 0.34 0.40 0.47 0.51 0.47 0.41 0.40 0.42 0.45 0.47 0.48 0.49 0.50 0.53 0.56 0.58 0.58 0.58 0.58 0.60 0.60
0.26 0.26 0.27 0.27 0.25 0.24 0.24 0.25 0.27 0.28 0.29 0.30 0.30 0.31 0.33 0.34 0.33 0.32 0.35 0.35 0.36 0.37 0.35 0.37 0.42 0.45 0.44 0.38 0.35 0.36 0.38 0.41 0.44 0.46 0.47 0.50 0.52 0.54 0.54 0.54 0.54 0.52 0.52 0.53
0.24 0.23 0.23 0.23 0.23 0.23 0.24 0.25 0.24 0.24 0.25 0.25 0.25 0.27 0.29 0.32 0.35 0.33 0.31 0.31 0.33 0.34 0.32 0.33 0.36 0.37 0.35 0.32 0.32 0.33 0.35 0.38 0.43 0.47 0.48 0.48 0.49 0.50 0.51 0.50 0.50 0.49 0.47 0.46
0.20 0.20 0.21 0.23 0.25 0.25 0.25 0.26 0.28 0.26 0.25 0.26 0.25 0.24 0.24 0.24 0.26 0.27 0.29 0.30 0.32 0.33 0.32 0.30 0.31 0.32 0.32 0.32 0.33 0.34 0.35 0.36 0.38 0.40 0.41 0.43 0.45 0.47 0.47 0.46 0.45 0.45 0.45 0.43
0.16 0.16 0.16 0.17 0.19 0.20 0.22 0.25 0.29 0.29 0.29 0.31 0.29 0.25 0.24 0.24 0.26 0.27 0.28 0.29 0.30 0.31 0.30 0.30 0.31 0.33 0.33 0.34 0.35 0.35 0.35 0.35 0.36 0.37 0.38 0.41 0.43 0.45 0.45 0.45 0.46 0.45 0.45 0.44